Reno, NV

11:37 AM PST on February 08, 2016 (GMT -0800)
Reno-Tahoe International

Weather History for KRNO - October, 2012

Change the Weather History Date:

Monday, October 29, 2012

  Actual Average Record
Temperature  
Mean Temperature 59 °F 49 °F  
Max Temperature 78 °F 63 °F 79 °F (1937)
Min Temperature 39 °F 35 °F 8 °F (1971)
Degree Days  
Heating Degree Days 6 16  
Month to date heating degree days 210 314  
Since 1 July heating degree days 211 404  
Cooling Degree Days 0 0  
Month to date cooling degree days 17 4  
Year to date cooling degree days 1272 838  
Growing Degree Days 8 (Base 50)    
Moisture  
Dew Point 30 °F    
Average Humidity 45    
Maximum Humidity 76    
Minimum Humidity 14    
Precipitation  
Precipitation 0.00 in 0.02 in 0.49 in (1945)
Month to date precipitation 0.08 0.47  
Year to date precipitation 2.81 5.51  
Snow  
Snow 0.00 in 0.10 in T in (1991)
Month to date snowfall 0.0 0.3  
Since 1 July snowfall 0.0 0.4  
Since 1 September snowfall 0.0 0.4  
Snow Depth 0.00 in    
Sea Level Pressure  
Sea Level Pressure 30.10 in    
Wind  
Wind Speed 2 mph (West)    
Max Wind Speed 15 mph    
Max Gust Speed 21 mph    
Visibility 10 miles    
Events      
T = Trace of Precipitation, MM = Missing Value Source: NWS Daily Summary

Daily Weather History Graph

Daily Weather History Graph

Search for Another Location

Airport or City:

Trip Planner

Search our weather history database for the weather conditions in past years. The results will help you decide how hot, cold, wet, or windy it might be!

Date:

Astronomy

Oct. 29, 2012 Rise Set
Actual Time 7:24 AM PDT 6:00 PM PDT
Civil Twilight 6:56 AM PDT 6:28 PM PDT
Nautical Twilight 6:25 AM PDT 6:59 PM PDT
Astronomical Twilight 5:53 AM PDT 7:30 PM PDT
Moon 5:55 PM PDT (10/29) 7:19 AM PDT (10/29)
Length of Visible Light 11h 31m
Length of Day
10h 35m
Full, 100% of the Moon is Illuminated
Oct 29
Full
Oct 29
Full
Nov 6
Last Quarter
Nov 13
New
Nov 20
First Quarter

Hourly Weather History & Observations

Time (PDT) Temp. Windchill Dew Point Humidity Pressure Visibility Wind Dir Wind Speed Gust Speed Precip Events Conditions
12:55 AM 48.9 °F - 33.1 °F 54% 30.07 in 10.0 mi South 5.8 mph - N/A   Mostly Cloudy
1:55 AM 46.9 °F - 33.1 °F 59% 30.07 in 10.0 mi Calm Calm - N/A   Mostly Cloudy
2:55 AM 45.0 °F - 33.1 °F 63% 30.08 in 10.0 mi Calm Calm - N/A   Scattered Clouds
3:55 AM 44.1 °F - 32.0 °F 63% 30.07 in 10.0 mi Calm Calm - N/A   Partly Cloudy
4:55 AM 39.9 °F 37.8 °F 32.0 °F 73% 30.09 in 10.0 mi SSW 3.5 mph - N/A   Partly Cloudy
5:55 AM 42.1 °F - 32.0 °F 67% 30.10 in 10.0 mi Calm Calm - N/A   Partly Cloudy
6:55 AM 41.0 °F - 32.0 °F 70% 30.12 in 10.0 mi Calm Calm - N/A   Clear
7:55 AM 39.9 °F - 30.9 °F 70% 30.15 in 10.0 mi Calm Calm - N/A   Clear
8:55 AM 45.0 °F - 34.0 °F 65% 30.17 in 10.0 mi Calm Calm - N/A   Clear
9:55 AM 51.1 °F - 34.0 °F 52% 30.18 in 10.0 mi SSE 3.5 mph - N/A   Clear
10:55 AM 60.1 °F - 33.1 °F 36% 30.16 in 10.0 mi Calm Calm - N/A   Clear
11:55 AM 64.0 °F - 30.9 °F 29% 30.14 in 10.0 mi Variable 3.5 mph - N/A   Partly Cloudy
12:55 PM 71.1 °F - 28.0 °F 20% 30.09 in 10.0 mi Calm Calm - N/A   Partly Cloudy
1:55 PM 73.0 °F - 26.1 °F 17% 30.06 in 10.0 mi Variable 4.6 mph - N/A   Clear
2:55 PM 75.9 °F - 23.0 °F 14% 30.04 in 10.0 mi WNW 5.8 mph - N/A   Partly Cloudy
3:55 PM 75.9 °F - 24.1 °F 15% 30.04 in 10.0 mi Calm Calm - N/A   Partly Cloudy
4:55 PM 75.9 °F - 24.1 °F 15% 30.04 in 10.0 mi West 5.8 mph - N/A   Partly Cloudy
5:55 PM 71.1 °F - 26.1 °F 19% 30.05 in 10.0 mi NNW 11.5 mph - N/A   Partly Cloudy
6:55 PM 68.0 °F - 28.9 °F 23% 30.08 in 10.0 mi NW 11.5 mph - N/A   Clear
7:55 PM 64.9 °F - 30.0 °F 27% 30.09 in 10.0 mi North 3.5 mph - N/A   Clear
8:55 PM 59.0 °F - 30.0 °F 33% 30.12 in 10.0 mi Calm Calm - N/A   Clear
9:55 PM 53.1 °F - 30.0 °F 41% 30.13 in 10.0 mi Calm Calm - N/A   Clear
10:55 PM 51.1 °F - 30.0 °F 44% 30.12 in 10.0 mi Calm Calm - N/A   Clear
11:55 PM 48.9 °F - 30.9 °F 50% 30.11 in 10.0 mi South 3.5 mph - N/A   Clear